Regional Weather Roundup
Issued by NWS Sioux Falls, SD

Home | Current Version | Previous Version | Graphics & Text | Print | Product List | Glossary Off
Versions: 1 2 3 4 5 6 7 8 9 10 11 12 13 14 15 16 17 18 19 20 21 22 23 24 25 26 27 28 29 30 31 32 33 34 35 36 37 38 39 40 41 42 43 44 45 46 47 48 49 50

250
ASUS43 KFSD 021810
RWRFSD

WEATHER ROUNDUP FOR SE SOUTH DAKOTA/SW MINNESOTA/NW IOWA
NATIONAL WEATHER SERVICE SIOUX FALLS SD
1200 PM CST FRI DEC 02 2016

NOTE: "FAIR" INDICATES FEW OR NO CLOUDS BELOW 12,000 FEET WITH NO
SIGNIFICANT WEATHER AND OR OBSTRUCTIONS TO VISIBILITY.


SDZ038>040-050-052>070-021900-
SOUTHEAST SOUTH DAKOTA

CITY           SKY/WX    TMP DP  RH WIND       PRES   REMARKS
BROOKINGS      CLOUDY    30  23  75 NW13      30.23F WCI  20
CHAMBERLAIN    CLOUDY    32  31  94 NE6       30.26S WCI  26
6HR MIN TEMP:  30; 6HR MAX TEMP:  33;

HURON          CLOUDY    30  26  85 N10       30.28S WCI  21
6HR MIN TEMP:  28; 6HR MAX TEMP:  31;

MADISON        CLOUDY    28  28 100 NW10      30.25S WCI  19
MITCHELL       CLOUDY    33  28  81 N6        30.29S WCI  28
6HR MIN TEMP:  30; 6HR MAX TEMP:  33; 6HR PCP: TRACE;

SIOUX FALLS    CLOUDY    33  28  81 NW5       30.26S WCI  29
6HR MIN TEMP:  30; 6HR MAX TEMP:  33;

WINNER         MOCLDY    32  25  75 NW3       30.25F
YANKTON        CLOUDY    36  28  75 NW9       30.28S
$$

MNZ071-072-080-081-089-090-097-098-021900-
SOUTHWEST MINNESOTA

CITY           SKY/WX    TMP DP  RH WIND       PRES   REMARKS
FAIRMONT       CLOUDY    31  25  78 NW10      30.25S WCI  22
JACKSON        CLOUDY    30  23  74 NW13      30.25S WCI  20
LUVERNE        CLOUDY    32  23  69 N9        30.26S WCI  24
MARSHALL       CLOUDY    29  23  78 N9        30.27S WCI  20
6HR MIN TEMP:  28; 6HR MAX TEMP:  29; 6HR PCP: TRACE;

MONTEVIDEO     CLOUDY    28  27  93 N9        30.29R WCI  20
PIPESTONE      CLOUDY    30  25  80 N8        30.23S WCI  23
REDWOOD FALLS  CLOUDY    30  21  69 NW6       30.27R WCI  24
TRACY          CLOUDY    30  26  83 NW7       30.26S WCI  23
WINDOM         MIX PCPN  28  27  93 CALM      30.25S
WORTHINGTON    CLOUDY    30  23  75 NW13      30.25S WCI  20
$$

IAZ001>003-012>014-020>022-031-032-NEZ013-014-SDZ071-021900-
NORTHWEST IOWA

CITY           SKY/WX    TMP DP  RH WIND       PRES   REMARKS
CHEROKEE       CLOUDY    35  31  85 N6        30.27R WCI  30
DENISON        CLOUDY    37  32  81 CALM      30.23F
ESTHERVILLE    CLOUDY    31  26  82 NW12      30.25R WCI  22
LE MARS        CLOUDY    34  30  86 N5        30.28S WCI  30
ORANGE CITY    CLOUDY    34  28  80 CALM      30.26S
SHELDON        CLOUDY    34  28  80 NW8       30.25S WCI  27
SIOUX CITY     CLOUDY    39  31  72 NW7       30.28F
6HR MIN TEMP:  33; 6HR MAX TEMP:  39;

SPENCER        CLOUDY    34  24  67 NW17      30.25S WCI  23
6HR MIN TEMP:  31; 6HR MAX TEMP:  35;

STORM LAKE       N/A     34  30  86 NW6       30.25S WCI  29
$$

ABBREVIATIONS USED IN REMARKS
   TC - TEMPERATURE IN CELSIUS
  WCI - WIND CHILL INDEX
   HX - HEAT INDEX
  VSB - VISIBILITY





USA.gov is the U.S. government's official web portal to all federal, state and local government web resources and services.